User: anonymous   Login
Location: Port Hueneme
(34.1478°N, 119.1951°W)
Time: 13:54:37
(UTC+00:00)
Language:

CZ-2C R/B - Orbit

View from above orbital plane
View from above orbital plane
View from above satellite
View from above satellite

Ground track
Ground track

The orbit is defined by the following mean orbital elements,

1 40262U          26022.30082840 +.00000000 +00000-0 +27063-3 0 00005
2 40262  98.3771 238.5974 0040533 290.4362  69.2496 14.76190376    00
Epoch (UTC): 22 January 2026 07:13:11
Eccentricity: 0.0040533
inclination: 98.3771°
perigee height: 613 km
apogee height: 670 km
right ascension of ascending node: 238.5974°
argument of perigee: 290.4362°
revolutions per day: 14.76190376
mean anomaly at epoch: 69.2496°

The dashed part of the orbit path shows where the satellite is in the earth's shadow,  

DLR